Flag for Switzerland Weather past 2 weeks in Pully, Vaud, Switzerland

Now
25 °F

Chilly.


Feels Like: 25 °F
Forecast: 30 / 36 °F
Wind: 1 mph from South

Location: Aigle

Current Time: Jan 31, 2015 at 6:36:09 AM

Latest Report: Jan 31, 2015 at 6:00 AM


Visibility: N/A

Pressure: 29.18 "Hg

Humidity: 100%

Dew point: 25 °F

Location of PullyLocation

Historic Weather in Pully — Graph

°F

Pully temperature yesterday

Maximum temperature yesterday: 37 °F (at 12:00 AM)
Minimum temperature yesterday: 31 °F (at 11:00 AM)
Average temperature yesterday: 34 °F

Past Weeks' High & Low Weather Summary

 TemperatureHumidityPressure
High50 °F (Jan 16, 10:00 AM)100% (Jan 17, 11:00 PM)30.42 "Hg (Jan 17, 11:00 PM)
Low22 °F (Jan 28, 6:00 AM)42% (Jan 16, 5:00 AM)29.00 "Hg (Jan 29, 11:00 PM)
Average35 °F84%29.96 "Hg
* Reported Jan 16 5:00 AM — Jan 31 5:00 AM, Pully, Weather by CustomWeather, © 2014

Note: Actual official high and low records may vary slightly from our data, if they occured in-between our weather recording intervals... More about our weather records

Advertising

Pully weather history for previous 24 hours

 ConditionsComfort  
Time TempWeatherWind HumidityBarometerVisibility
5:00 AM
Jan 31
30 °FChilly.5 mph95%29.15 "HgN/A
3:00 AM32 °FChilly.1 mph93%29.15 "HgN/A
2:00 AM30 °FChilly.1 mph95%29.15 "HgN/A
1:00 AM31 °FChilly.1 mph96%29.15 "HgN/A
12:00 AM32 °FChilly.3 mph94%29.12 "HgN/A
11:00 PM
Jan 30
33 °FChilly.2 mph91%29.09 "HgN/A
10:00 PM32 °FChilly.6 mph92%29.09 "HgN/A
9:00 PM32 °FChilly.5 mph95%29.09 "HgN/A
8:00 PM32 °FChilly.7 mph92%29.06 "HgN/A
7:00 PM34 °FChilly.3 mph75%29.03 "HgN/A
6:00 PM33 °FChilly.3 mph85%29.03 "HgN/A
5:00 PM33 °FChilly.1 mph83%29.03 "HgN/A
4:00 PM36 °FChilly.3 mph68%29.03 "HgN/A
3:00 PM35 °FChilly.3 mph80%29.06 "HgN/A
2:00 PM32 °FChilly.1 mph90%29.12 "HgN/A
1:00 PM32 °FChilly.2 mph90%29.15 "HgN/A
12:00 PM31 °FChilly.2 mph92%29.18 "HgN/A
11:00 AM31 °FChilly.2 mph94%29.21 "HgN/A
10:00 AM31 °FSnow. Low clouds.3 mph93%29.21 "Hg5 mi
9:00 AM35 °FChilly.3 mph57%29.18 "HgN/A
8:00 AM36 °FChilly.10 mph56%29.18 "HgN/A
7:00 AM36 °FOvercast.8 mph60%29.15 "Hg10 mi
6:00 AM36 °FChilly.14 mph58%29.12 "HgN/A
Weather by CustomWeather, © 2014

See weather overviewHow to use our weather pages